THORAD AGENA D DEB, 5507

Orbit data source: Space-Track

THORAD AGENA D DEB, 5507 is space debris in SSO originally from a launch on Wed, 08 Apr 1970 UTC launched from the Air Force Western Test Range (AFWTR). Debris objects in space refer to the collection of defunct objects orbiting the Earth. Examples of debris include non-operational satellites, rocket bodies, and fragments generated from explosions, collisions, or faulty payload assembly.

Loading next visibility...
Identifier
5507, 1970-025LL
Orbit
SSO
Country
Flag of USUS
Related business
Manufacturer
Unknown
Mission
Spacecraft
Bus & Motor
Unknown
Mass
Unknown
Launch date (UTC)
1970-04-08 (56 years ago)
Launch vehicle
Unknown
Launch site
Air Force Western Test Range (AFWTR)
Object type
Payload
Rocket body
Debris
Shape & HBR
Unknown shape, 0.1 m
Radar Cross Section
Small (<0.1 m²)

Expand to show TLE details & history
Last TLE update: 12 hours ago

TLE from 12 hours ago
0 THORAD AGENA D DEB
1  5507U 70025LL  26255.88700977  .00002421  00000-0  82850-3 0  9992
2  5507  99.2623 307.9154 0024834 172.8128 187.3416 14.37124672864385
Epoch: 2026-09-12T21:17Z
TLE epoch observation values (Epoch: 2026-09-12T21:17:17.644Z)
Latitude
-0.00009°
Longitude
-3.29767°
Altitude
788.539 km
Speed
7.45 km/s
True Right ascension
20h 31m 39s
True Declination
0° 00' 00"
Sunlit
Object was in full shadow at epoch
Visualization orbit readout
Latitude
Unknown
Longitude
Unknown
Altitude
Unknown
Speed
Unknown
Apparent Right ascension
Unknown
Apparent Declination
Unknown
Sunlit
N/A
Visualization observer readout
Local Sidereal Time
01:27:53
Azimuth
Unknown
Elevation
Unknown
Doppler factor
Unknown
Orbital elements
Apogee altitude
782.917 km
Perigee altitude
747.438 km
Semi-major axis
7,143.315 km
Eccentricity
0.00248
Inclination
99.2623°
RAAN
307.9154°
Arg. of periapsis
172.8128°
True anomaly
187.30535°
Mean anomaly
187.3416°
Eccentric anomaly
187.32346°
Mean motion
3.59496 °/min
Orbital period
100.14 mins
BSTAR
0.0008285
Loading maneuver chart data...
Computing Atmospheric mass density...

Documentation

Showing up to 5 results
|